Location: Recife
(8.0585°S, 34.8848°W)
Time: 12:31:45
(UTC-03:00)

Vanguard 2 - Pass Details

Date: 19 April 2026
Orbit: 554 x 2894 km, 32.9° (Epoch: 7 May)

Event Time Altitude Azimuth Distance (km) Brightness Sun altitude
Rises 19:54:57 0° 285° (WNW) 4,716 12.4 -39.8°
Reaches altitude 10° 19:57:45 10° 280° (W) 4,010 11.8 -40.5°
Maximum altitude 20:08:52 53° 206° (SSW) 2,746 10.1 -43.2°
Enters shadow 20:11:00 50° 182° (S) 2,925 10.2 -43.7°
Drops below altitude 10° 20:25:10 10° 133° (SE) 5,666 - -47.2°
Sets 20:30:03 0° 128° (SE) 6,738 - -48.4°
